Regional Weather Roundup
Issued by NWS

Home | Current Version | Previous Version | Graphics & Text | Print | Product List | Glossary On
Versions: 1 2 3 4 5 6 7 8 9 10 11 12 13 14 15 16 17 18 19 20 21 22 23 24 25 26 27 28 29 30 31 32 33 34 35 36 37 38 39 40 41 42 43 44 45 46 47 48 49 50
255
ASUS43 KTOP 131208
RWRKS

WEATHER ROUNDUP FOR KANSAS
NATIONAL WEATHER SERVICE GOODLAND KS
600 AM CST SAT FEB 13 2016

NOTE:  "FAIR" INDICATES FEW OR NO CLOUDS BELOW 12,000 FEET WITH NO
SIGNIFICANT WEATHER AND/OR OBSTRUCTIONS TO VISIBILITY.

KSZ001>006-013>018-027>032-041>047-131300-
NORTHWEST KANSAS

CITY           SKY/WX    TMP DP  RH WIND       PRES   REMARKS
GOODLAND       CLOUDY    25  24  96 S20       30.25F FOG     WCI  11
6HR MIN TEMP:  25; 6HR MAX TEMP:  28;

HAYS           CLOUDY    19   9  63 E12       30.43R WCI   7
HILL CITY      CLOUDY    21  17  84 SE8       30.42R
6HR MIN TEMP:  21; 6HR MAX TEMP:  27;

RUSSELL        CLOUDY    18  14  84 E9        30.43F
6HR MIN TEMP:  18; 6HR MAX TEMP:  26;

$$

KSZ061>065-074>080-084>089-131300-
SOUTHWEST KANSAS

CITY           SKY/WX    TMP DP  RH WIND       PRES   REMARKS
DODGE CITY     CLOUDY    21  18  88 SE9       30.37F
6HR MIN TEMP:  20; 6HR MAX TEMP:  25;

ELKHART          N/A     25  19  78 SE13        N/A  WCI  14
GARDEN CITY    CLOUDY    23  20  88 SE12      30.33F WCI  12
6HR MIN TEMP:  22; 6HR MAX TEMP:  25;

GREAT BEND     CLOUDY    21  10  63 E8        30.44S
LIBERAL        CLOUDY    27  21  80 SE12      30.33F WCI  16
PRATT          PTCLDY    20  14  78 E6        30.43S
6HR MIN TEMP:  19; 6HR MAX TEMP:  26;

$$

KSZ066>073-081>083-090>101-131300-
SOUTHEAST KANSAS

CITY           SKY/WX    TMP DP  RH WIND       PRES   REMARKS
CHANUTE        CLOUDY    23   5  46 NE10      30.54S WCI  12
6HR MIN TEMP:  23; 6HR MAX TEMP:  29;

COFFEYVILLE    CLEAR     24   8  50 NE9       30.54R
6HR MIN TEMP:  24; 6HR MAX TEMP:  32;

HUTCHINSON     CLOUDY    21  12  68 E10       30.48R WCI  10
6HR MIN TEMP:  21; 6HR MAX TEMP:  30;

MEDICINE LODGE   N/A     25  18  74 E6        30.45R
NEWTON         CLOUDY    19   9  63 E7        30.49S
PARSONS        MOCLDY    24   7  48 VRB6      30.54R
6HR MIN TEMP:  24; 6HR MAX TEMP:  31;

WICHITA INTL   CLOUDY    24  10  55 E14       30.48S WCI  12
6HR MIN TEMP:  24; 6HR MAX TEMP:  33;

WICHITA JABRA  CLOUDY    20  11  68 E8        30.48S
6HR MIN TEMP:  20; 6HR MAX TEMP:  30;

WICHITA MCCONL CLOUDY    23  10  59 E8        30.48S
WINFIELD       CLOUDY    24  11  57 NE9       30.50R
6HR MIN TEMP:  24; 6HR MAX TEMP:  34;

$$

KSZ007>012-019>026-033>040-048>060-102>105-131300-
NORTHEAST KANSAS

CITY           SKY/WX    TMP DP  RH WIND       PRES   REMARKS
CONCORDIA      CLOUDY    19   7  59 E13       30.51F WCI   6
6HR MIN TEMP:  19; 6HR MAX TEMP:  23;

EMPORIA        CLOUDY    19   3  49 NE9       30.53S
6HR MIN TEMP:  19; 6HR MAX TEMP:  25;

LAWRENCE       CLOUDY    18   1  47 NE10      30.60F WCI   6
6HR MIN TEMP:  18; 6HR MAX TEMP:  21;

MANHATTAN      CLOUDY    19   4  51 E9        30.57R
6HR MIN TEMP:  19; 6HR MAX TEMP:  24;

MARYSVILLE     CLOUDY    18   5  57 E6        30.56F
OLATHE IND     CLOUDY    18   1  47 NE9       30.59R
6HR MIN TEMP:  18; 6HR MAX TEMP:  21;

OLATHE EXE     CLOUDY    17   1  49 NE12      30.58R WCI   4
6HR MIN TEMP:  16; 6HR MAX TEMP:  20;

SALINA         CLOUDY    22  12  65 E8        30.52S
6HR MIN TEMP:  22; 6HR MAX TEMP:  28;

TOPEKA BILLARD CLOUDY    20   6  55 NE10      30.60R WCI   9
6HR MIN TEMP:  20; 6HR MAX TEMP:  22;

TOPEKA FORBES  CLOUDY    20   6  55 NE7       30.57S
6HR MIN TEMP:  20; 6HR MAX TEMP:  22;

$$




USA.gov is the U.S. government's official web portal to all federal, state and local government web resources and services.